Powrót do katalogu

STARLINK-36796

AktywnyŁącznośćSSO
NORAD 67722·PAYLOAD·🇺🇸 United States

Wystrzelony Feb 11, 2026 z Vandenberg Space Force Base

Loading…

Następne Przeloty (najbliższe 24 godziny)

TLE

ŚwieżeSource: CelesTrak SupGP

Epoka: Sep 14, 2026, 20:48 UTC

1 67722C 26026B   26257.86715278 -.00020181  00000+0 -62658-3 0  2576
2 67722  97.2842 309.7123 0001115  99.9201 235.7987 15.33443905    10

Śledź STARLINK-36796 w czasie rzeczywistym z AllMySat

Download on the App Store